AUA251 LOWW-EDDH

Flight info

Callsign AUA251
Flight time 0h 58m
Altitude 36000
Route LANUX DCT LALUK DCT MILGU DCT SOGMA M748 BUMIL/N0390F240 M748 RARUP RARUP6A
Aircraft A320/M-SDE3FGHIRWY/LB1

Departure

Time 2026-04-26 10:26
Airport Vienna International Airport (LOWW)

Arrival

Time 2026-04-26 11:25
Airport Hamburg Helmut Schmidt Airport (EDDH)
Time Latitude Longitude Altitude Speed Heading
2026-04-26 10:01 48.11674 16.56899 627 ft 0 kts 25°
2026-04-26 10:17 48.11661 16.56890 622 ft 4 kts 25°
2026-04-26 10:17 48.11637 16.56873 618 ft 4 kts 28°
2026-04-26 10:18 48.11615 16.56851 616 ft 4 kts 52°
2026-04-26 10:18 48.11609 16.56827 623 ft 0 kts 116°
2026-04-26 10:21 48.11608 16.56830 623 ft 3 kts 116°
2026-04-26 10:21 48.11593 16.56874 614 ft 10 kts 122°
2026-04-26 10:21 48.11492 16.56875 617 ft 16 kts 205°
2026-04-26 10:21 48.11391 16.56824 613 ft 15 kts 187°
2026-04-26 10:22 48.11326 16.56915 618 ft 13 kts 117°
2026-04-26 10:22 48.11288 16.57031 615 ft 12 kts 115°
2026-04-26 10:22 48.11253 16.57139 624 ft 11 kts 116°
2026-04-26 10:22 48.11212 16.57228 614 ft 10 kts 148°
2026-04-26 10:23 48.11162 16.57221 614 ft 2 kts 205°
2026-04-26 10:23 48.11161 16.57220 610 ft 0 kts 205°
2026-04-26 10:24 48.11144 16.57208 622 ft 6 kts 205°
2026-04-26 10:24 48.11106 16.57181 615 ft 6 kts 206°
2026-04-26 10:25 48.11071 16.57155 623 ft 6 kts 208°
2026-04-26 10:25 48.11056 16.57113 623 ft 4 kts 269°
2026-04-26 10:25 48.11070 16.57056 624 ft 8 kts 296°
2026-04-26 10:25 48.11139 16.56847 613 ft 55 kts 295°
2026-04-26 10:26 48.11418 16.55995 617 ft 123 kts 296°
2026-04-26 10:26 48.11874 16.54631 809 ft 156 kts 303°
2026-04-26 10:26 48.12261 16.53141 1768 ft 156 kts 274°
2026-04-26 10:26 48.12013 16.51457 2354 ft 178 kts 260°
2026-04-26 10:27 48.11752 16.49551 2790 ft 197 kts 265°
2026-04-26 10:27 48.11566 16.47373 3291 ft 224 kts 273°
2026-04-26 10:27 48.11800 16.44985 4027 ft 240 kts 283°
2026-04-26 10:27 48.12104 16.42481 5025 ft 247 kts 282°
2026-04-26 10:28 48.12376 16.39918 6080 ft 251 kts 282°
2026-04-26 10:28 48.12628 16.37322 7143 ft 252 kts 282°
2026-04-26 10:28 48.12890 16.34748 8122 ft 255 kts 282°
2026-04-26 10:28 48.13165 16.32095 9077 ft 260 kts 282°
2026-04-26 10:29 48.13446 16.29400 10037 ft 264 kts 282°
2026-04-26 10:29 48.13745 16.26591 10543 ft 284 kts 284°
2026-04-26 10:29 48.14352 16.23671 10893 ft 303 kts 297°
2026-04-26 10:29 48.15489 16.20988 11584 ft 309 kts 311°
2026-04-26 10:30 48.17085 16.18797 12362 ft 314 kts 324°
2026-04-26 10:30 48.19010 16.17206 13169 ft 319 kts 332°
2026-04-26 10:30 48.21011 16.15720 13972 ft 323 kts 332°
2026-04-26 10:30 48.23041 16.14215 14675 ft 327 kts 332°
2026-04-26 10:31 48.25090 16.12703 15385 ft 330 kts 332°
2026-04-26 10:31 48.27166 16.11174 16088 ft 334 kts 332°
2026-04-26 10:31 48.29261 16.09629 16800 ft 337 kts 332°
2026-04-26 10:31 48.31371 16.08064 17513 ft 340 kts 332°
2026-04-26 10:32 48.33505 16.06477 18227 ft 344 kts 332°
2026-04-26 10:32 48.35688 16.04852 18854 ft 347 kts 332°
2026-04-26 10:32 48.37829 16.03255 19450 ft 350 kts 332°
2026-04-26 10:32 48.40023 16.01616 20002 ft 354 kts 332°
2026-04-26 10:33 48.42232 15.99963 20564 ft 357 kts 332°
2026-04-26 10:33 48.44465 15.98291 21128 ft 360 kts 331°
2026-04-26 10:33 48.46716 15.96606 21665 ft 363 kts 331°
2026-04-26 10:33 48.48993 15.94904 22187 ft 366 kts 331°
2026-04-26 10:34 48.51286 15.93186 22711 ft 369 kts 331°
2026-04-26 10:34 48.53597 15.91453 23231 ft 373 kts 331°
2026-04-26 10:34 48.55929 15.89702 23742 ft 376 kts 330°
2026-04-26 10:34 48.58268 15.87904 24170 ft 378 kts 329°
2026-04-26 10:35 48.60586 15.85992 24589 ft 381 kts 328°
2026-04-26 10:35 48.62892 15.84004 25016 ft 383 kts 327°
2026-04-26 10:35 48.65208 15.81974 25430 ft 386 kts 327°
2026-04-26 10:35 48.67538 15.79932 25841 ft 388 kts 327°
2026-04-26 10:36 48.69888 15.77886 26247 ft 391 kts 327°
2026-04-26 10:36 48.72251 15.75844 26646 ft 393 kts 327°
2026-04-26 10:36 48.74645 15.73788 27055 ft 396 kts 327°
2026-04-26 10:36 48.77046 15.71730 27451 ft 398 kts 327°
2026-04-26 10:37 48.79463 15.69657 27849 ft 401 kts 327°
2026-04-26 10:37 48.81896 15.67562 28242 ft 403 kts 327°
2026-04-26 10:37 48.84343 15.65449 28631 ft 406 kts 327°
2026-04-26 10:37 48.86801 15.63319 29029 ft 408 kts 326°
2026-04-26 10:38 48.89276 15.61172 29393 ft 411 kts 326°
2026-04-26 10:38 48.91767 15.59015 29757 ft 413 kts 326°
2026-04-26 10:38 48.94274 15.56846 30111 ft 416 kts 326°
2026-04-26 10:38 48.96788 15.54665 30431 ft 418 kts 326°
2026-04-26 10:39 48.99325 15.52458 30724 ft 420 kts 326°
2026-04-26 10:39 48.99579 15.52236 30745 ft 420 kts 326°
2026-04-26 10:39 49.00405 15.51517 30850 ft 420 kts 326°
2026-04-26 10:39 49.02948 15.49305 31142 ft 422 kts 326°
2026-04-26 10:40 49.05509 15.47076 31423 ft 424 kts 326°
2026-04-26 10:40 49.08076 15.44838 31711 ft 425 kts 326°
2026-04-26 10:40 49.10640 15.42606 32115 ft 424 kts 326°
2026-04-26 10:40 49.13203 15.40371 32525 ft 423 kts 326°
2026-04-26 10:41 49.15747 15.38148 32934 ft 421 kts 326°
2026-04-26 10:41 49.17433 15.36674 33190 ft 421 kts 326°
2026-04-26 10:41 49.19971 15.34452 33579 ft 420 kts 326°
2026-04-26 10:41 49.22502 15.32232 33977 ft 419 kts 326°
2026-04-26 10:42 49.25027 15.30011 34360 ft 418 kts 326°
2026-04-26 10:42 49.27546 15.27790 34689 ft 417 kts 326°
2026-04-26 10:42 49.30060 15.25567 35039 ft 417 kts 326°
2026-04-26 10:42 49.32571 15.23345 35364 ft 416 kts 326°
2026-04-26 10:43 49.35070 15.21131 35674 ft 415 kts 326°
2026-04-26 10:43 49.37577 15.18913 35981 ft 415 kts 326°
2026-04-26 10:43 49.40073 15.16707 36217 ft 415 kts 326°
2026-04-26 10:43 49.43977 15.13251 36273 ft 411 kts 326°
2026-04-26 10:44 49.63731 14.95639 36277 ft 410 kts 326°
2026-04-26 10:44 49.83414 14.77908 36296 ft 410 kts 325°
2026-04-26 10:45 50.03040 14.60097 36336 ft 408 kts 325°
2026-04-26 10:45 50.12203 14.52104 38146 ft 357 kts 333°
2026-04-26 10:45 50.20384 14.47997 37444 ft 365 kts 320°
2026-04-26 10:46 50.22122 14.45080 36866 ft 373 kts 295°
2026-04-26 10:46 50.23350 14.41522 37076 ft 367 kts 306°
2026-04-26 10:46 50.25104 14.38800 38274 ft 351 kts 317°
2026-04-26 10:46 50.27155 14.36643 38335 ft 361 kts 326°
2026-04-26 10:47 50.29401 14.34827 38453 ft 366 kts 329°
2026-04-26 10:47 50.31715 14.33105 38367 ft 373 kts 329°
2026-04-26 10:47 50.34099 14.31267 37643 ft 391 kts 328°
2026-04-26 10:47 50.36532 14.29252 37002 ft 400 kts 326°
2026-04-26 10:48 50.38959 14.27106 36682 ft 402 kts 325°
2026-04-26 10:48 50.41375 14.24868 36459 ft 404 kts 324°
2026-04-26 10:48 50.43790 14.22581 36276 ft 406 kts 324°
2026-04-26 10:48 50.46207 14.20283 36286 ft 407 kts 324°
2026-04-26 10:49 50.51056 14.15693 36284 ft 407 kts 324°
2026-04-26 10:49 50.55927 14.11129 36283 ft 408 kts 324°
2026-04-26 10:50 50.59765 14.07544 36287 ft 408 kts 324°
2026-04-26 10:50 50.65463 14.02197 36292 ft 408 kts 324°
2026-04-26 10:51 50.72307 13.95731 36284 ft 408 kts 324°
2026-04-26 10:52 50.76973 13.91317 36296 ft 408 kts 325°
2026-04-26 10:52 50.81828 13.86661 36301 ft 407 kts 323°
2026-04-26 10:53 50.86107 13.82097 36298 ft 406 kts 321°
2026-04-26 10:53 50.90710 13.76920 36308 ft 406 kts 321°
2026-04-26 10:54 50.97654 13.69214 36305 ft 406 kts 322°
2026-04-26 10:54 51.02318 13.64132 36305 ft 407 kts 322°
2026-04-26 10:55 51.06993 13.59018 36302 ft 407 kts 322°
2026-04-26 10:55 51.11651 13.53888 36298 ft 408 kts 322°
2026-04-26 10:56 51.16318 13.48713 36317 ft 408 kts 323°
2026-04-26 10:56 51.20982 13.43536 36315 ft 409 kts 323°
2026-04-26 10:57 51.25655 13.38355 36314 ft 409 kts 323°
2026-04-26 10:57 51.31873 13.31437 36307 ft 409 kts 323°
2026-04-26 10:58 51.41122 13.21096 36310 ft 409 kts 323°
2026-04-26 10:58 51.50450 13.10624 36326 ft 408 kts 323°
2026-04-26 10:59 51.59742 13.00199 36335 ft 407 kts 324°
2026-04-26 10:59 51.69309 12.90488 36346 ft 406 kts 325°
2026-04-26 11:00 51.78803 12.80677 36341 ft 404 kts 324°
2026-04-26 11:00 51.88255 12.70796 36335 ft 403 kts 324°
2026-04-26 11:01 51.98024 12.60554 36335 ft 400 kts 324°
2026-04-26 11:01 52.16609 12.40965 36300 ft 397 kts 324°
2026-04-26 11:02 52.27425 12.29457 36320 ft 397 kts 324°
2026-04-26 11:02 52.36675 12.19557 36328 ft 396 kts 324°
2026-04-26 11:03 52.45880 12.09651 36325 ft 395 kts 324°
2026-04-26 11:03 52.53989 12.00894 36321 ft 395 kts 324°
2026-04-26 11:04 52.58577 11.95928 36324 ft 394 kts 323°
2026-04-26 11:04 52.63156 11.90960 36321 ft 394 kts 323°
2026-04-26 11:05 52.65399 11.88404 36016 ft 392 kts 321°
2026-04-26 11:05 52.67589 11.85716 35335 ft 391 kts 320°
2026-04-26 11:05 52.69735 11.82949 34703 ft 392 kts 319°
2026-04-26 11:05 52.71869 11.80150 34172 ft 392 kts 319°
2026-04-26 11:06 52.74008 11.77350 33564 ft 392 kts 319°
2026-04-26 11:06 52.76649 11.73928 32835 ft 389 kts 319°
2026-04-26 11:06 52.82312 11.66707 31327 ft 381 kts 320°
2026-04-26 11:06 52.86486 11.61401 30238 ft 375 kts 320°
2026-04-26 11:07 52.90561 11.56195 29153 ft 366 kts 319°
2026-04-26 11:07 52.94544 11.51086 28020 ft 359 kts 320°
2026-04-26 11:07 52.98461 11.46064 26886 ft 353 kts 319°
2026-04-26 11:07 53.02318 11.41087 25820 ft 348 kts 319°
2026-04-26 11:08 53.06108 11.36189 24804 ft 343 kts 319°
2026-04-26 11:08 53.09862 11.31366 23795 ft 338 kts 319°
2026-04-26 11:08 53.13583 11.26671 22712 ft 334 kts 321°
2026-04-26 11:08 53.17378 11.22299 21752 ft 329 kts 322°
2026-04-26 11:09 53.21093 11.18095 20838 ft 324 kts 322°
2026-04-26 11:09 53.24825 11.13815 19948 ft 319 kts 321°
2026-04-26 11:09 53.28447 11.09613 19088 ft 315 kts 321°
2026-04-26 11:09 53.31969 11.05524 18240 ft 310 kts 321°
2026-04-26 11:10 53.35494 11.01424 17348 ft 306 kts 321°
2026-04-26 11:10 53.37677 10.98886 16815 ft 303 kts 321°
2026-04-26 11:10 53.39405 10.96868 16390 ft 301 kts 321°
2026-04-26 11:10 53.41119 10.94859 15992 ft 299 kts 321°
2026-04-26 11:11 53.42821 10.92864 15602 ft 297 kts 321°
2026-04-26 11:11 53.44516 10.90889 15220 ft 296 kts 321°
2026-04-26 11:11 53.46195 10.88929 14830 ft 294 kts 321°
2026-04-26 11:11 53.47871 10.86961 14443 ft 292 kts 321°
2026-04-26 11:12 53.49531 10.85010 14068 ft 291 kts 321°
2026-04-26 11:12 53.51182 10.83065 13671 ft 289 kts 321°
2026-04-26 11:12 53.52826 10.81126 13324 ft 288 kts 321°
2026-04-26 11:12 53.54463 10.79197 12985 ft 286 kts 321°
2026-04-26 11:13 53.56090 10.77279 12659 ft 285 kts 321°
2026-04-26 11:13 53.57705 10.75371 12323 ft 283 kts 322°
2026-04-26 11:13 53.59311 10.73476 11990 ft 282 kts 322°
2026-04-26 11:13 53.60919 10.71576 11594 ft 281 kts 322°
2026-04-26 11:14 53.62514 10.69691 11139 ft 280 kts 322°
2026-04-26 11:14 53.64205 10.68026 10699 ft 281 kts 327°
2026-04-26 11:14 53.65848 10.66289 10209 ft 275 kts 324°
2026-04-26 11:14 53.66888 10.65136 9840 ft 267 kts 322°
2026-04-26 11:15 53.68723 10.62490 9142 ft 252 kts 315°
2026-04-26 11:15 53.69984 10.60481 8678 ft 247 kts 315°
2026-04-26 11:15 53.71236 10.58472 8209 ft 249 kts 315°
2026-04-26 11:15 53.72491 10.56451 7764 ft 250 kts 314°
2026-04-26 11:16 53.73740 10.54437 7314 ft 245 kts 314°
2026-04-26 11:16 53.74967 10.52464 6867 ft 244 kts 314°
2026-04-26 11:16 53.76182 10.50511 6411 ft 245 kts 314°
2026-04-26 11:16 53.77406 10.48539 5936 ft 239 kts 314°
2026-04-26 11:17 53.78578 10.46649 5549 ft 227 kts 314°
2026-04-26 11:17 53.79697 10.44852 5152 ft 217 kts 314°
2026-04-26 11:17 53.80702 10.43014 4728 ft 210 kts 303°
2026-04-26 11:17 53.81302 10.40798 4329 ft 207 kts 285°
2026-04-26 11:18 53.81427 10.38397 3968 ft 206 kts 268°
2026-04-26 11:18 53.81068 10.36038 3708 ft 210 kts 250°
2026-04-26 11:18 53.80249 10.33945 3440 ft 217 kts 234°
2026-04-26 11:18 53.79281 10.31965 3161 ft 220 kts 235°
2026-04-26 11:19 53.78314 10.29983 3009 ft 214 kts 235°
2026-04-26 11:19 53.77395 10.28101 3004 ft 202 kts 235°
2026-04-26 11:19 53.76515 10.26300 3011 ft 194 kts 235°
2026-04-26 11:19 53.75680 10.24590 3017 ft 185 kts 235°
2026-04-26 11:20 53.74860 10.22905 3003 ft 183 kts 236°
2026-04-26 11:20 53.74326 10.21817 3042 ft 179 kts 236°
2026-04-26 11:20 53.73309 10.19738 3032 ft 169 kts 237°
2026-04-26 11:20 53.72572 10.18229 2978 ft 165 kts 236°
2026-04-26 11:21 53.71842 10.16737 2834 ft 165 kts 236°
2026-04-26 11:21 53.71104 10.15227 2630 ft 167 kts 235°
2026-04-26 11:21 53.70395 10.13788 2416 ft 152 kts 235°
2026-04-26 11:21 53.69760 10.12497 2218 ft 136 kts 236°
2026-04-26 11:22 53.69173 10.11301 2036 ft 131 kts 236°
2026-04-26 11:22 53.68596 10.10126 1846 ft 128 kts 235°
2026-04-26 11:22 53.68035 10.08981 1677 ft 129 kts 236°
2026-04-26 11:22 53.67460 10.07809 1490 ft 127 kts 236°
2026-04-26 11:23 53.66915 10.06702 1339 ft 127 kts 235°
2026-04-26 11:23 53.66348 10.05561 1102 ft 127 kts 237°
2026-04-26 11:23 53.65784 10.04413 821 ft 127 kts 236°
2026-04-26 11:23 53.65209 10.03246 602 ft 130 kts 233°
2026-04-26 11:24 53.64625 10.02061 411 ft 133 kts 233°
2026-04-26 11:24 53.64041 10.00860 240 ft 135 kts 233°
2026-04-26 11:24 53.63438 9.99638 57 ft 134 kts 231°
2026-04-26 11:24 53.63075 9.98903 46 ft 112 kts 231°
2026-04-26 11:25 53.62539 9.97817 41 ft 62 kts 231°
2026-04-26 11:25 53.62366 9.97463 40 ft 29 kts 230°
2026-04-26 11:25 53.62276 9.97368 40 ft 21 kts 185°
2026-04-26 11:25 53.62195 9.97439 45 ft 3 kts 128°
2026-04-26 11:26 53.62191 9.97447 45 ft 0 kts 126°
2026-04-26 11:26 53.62178 9.97495 47 ft 7 kts 106°
2026-04-26 11:26 53.62190 9.97600 47 ft 10 kts 59°
2026-04-26 11:26 53.62228 9.97684 47 ft 8 kts 50°
2026-04-26 11:27 53.62273 9.97774 47 ft 17 kts 50°
2026-04-26 11:27 53.62372 9.97974 47 ft 24 kts 50°
2026-04-26 11:27 53.62497 9.98179 46 ft 26 kts 40°
2026-04-26 11:27 53.62623 9.98416 47 ft 28 kts 51°
2026-04-26 11:28 53.62753 9.98680 47 ft 30 kts 50°
2026-04-26 11:28 53.62890 9.98959 47 ft 32 kts 50°
2026-04-26 11:28 53.63035 9.99252 47 ft 33 kts 50°
2026-04-26 11:28 53.63155 9.99535 46 ft 12 kts 50°
2026-04-26 11:29 53.63204 9.99634 48 ft 10 kts 50°
2026-04-26 11:29 53.63272 9.99751 48 ft 17 kts 45°
2026-04-26 11:29 53.63354 9.99914 48 ft 19 kts 50°
2026-04-26 11:29 53.63427 10.00076 48 ft 11 kts 79°
2026-04-26 11:30 53.63421 10.00139 48 ft 0 kts 109°
2026-04-26 11:30 53.63416 10.00156 48 ft 7 kts 121°
2026-04-26 11:30 53.63369 10.00222 48 ft 6 kts 162°
2026-04-26 11:30 53.63334 10.00249 48 ft 5 kts 134°
2026-04-26 11:31 53.63328 10.00297 48 ft 4 kts 85°
2026-04-26 11:31 53.63330 10.00336 49 ft 0 kts 85°
2026-04-26 11:31 53.63330 10.00343 48 ft 2 kts 85°
2026-04-26 11:31 53.63331 10.00361 48 ft 1 kts 86°
2026-04-26 11:32 53.63331 10.00364 48 ft 0 kts 86°